Weather Roundup
Issued by NWS

Home | Current Version | Previous Version | Text Only | Print | Product List | Glossary On
Versions: 1 2 3 4 5 6 7 8 9 10 11 12 13 14 15 16 17 18 19 20 21 22 23 24 25 26 27 28 29 30 31 32 33 34 35 36 37 38 39 40 41 42 43 44 45 46 47 48 49 50
000
NZUS93 KARX 190010
HRRWXR

CURRENT HOURLY OBSERVATIONS ACROSS
MUCH OF THE UPPER MISSISSIPPI VALLEY
NATIONAL WEATHER SERVICE LA CROSSE WI
700 PM CDT SAT APR 18 2015


...SOUTHEAST MINNESOTA...


CITY           SKY/WX    TMP DP  RH WIND       PRES   REMARKS
ROCHESTER      CLOUDY    66  41  40 SE15      29.92S
ROCHESTER/MAYO FAIR      69  40  34 E14G22    29.91F
WINONA         MOCLDY    70  41  35 SE16G22   29.94S
AUSTIN         RAIN      61  55  82 SW8G17    29.94R
ALBERT LEA     HVY RAIN  57  57 100 S8        29.94R
DODGE CENTER   CLOUDY    70  39  32 E18G24    29.90S
PRESTON        MOCLDY    67  39  36 E10       29.93R
OWATONNA       CLOUDY    64  50  59 S9        29.92R
FARIBAULT      CLOUDY    70  39  32 E12G17    29.90R
$$

...ELSEWHERE IN MINNESOTA...


CITY           SKY/WX    TMP DP  RH WIND       PRES   REMARKS
MINNEAPOLIS    CLOUDY    69  35  28 E15       29.90F
INTNL FALLS    MOSUNNY   58  17  20 SE12      30.00F
DULUTH         CLEAR     44  28  53 E16G29    30.07F
RED WING       CLOUDY    72  34  25 SE12      29.90F
REDWOOD FALLS  LGT RAIN  60  55  83 SW13      29.89R
MANKATO        CLOUDY    61  50  67 S8        29.91S
WORTHINGTON    CLOUDY    55  54  94 SE8       29.87S
FAIRMONT       CLOUDY    57  52  82 SE9       29.87F
$$

...SOUTHWEST WISCONSIN...


CITY           SKY/WX    TMP DP  RH WIND       PRES   REMARKS
LA CROSSE      MOCLDY    68  34  28 E9        29.95S
PRAIRIE DU CHI MOCLDY    69  33  27 E16G23    29.93S
BOSCOBEL       PTCLDY    68  34  28 E9        29.96S
LONE ROCK      PTCLDY    65  31  28 E15       29.98F
PLATTEVILLE    MOCLDY    68  34  29 E13       29.96S
FORT MC COY    MOCLDY    64  25  22 E15G23    30.00S
CAMP DOUGLAS   MOCLDY    61  25  25 E16       30.01F
VIROQUA        FAIR      63  33  32 E16       29.97S
WIS DELLS      CLEAR     62  26  25 E13G21    30.02F
$$

...ELSEWHERE IN WISCONSIN...


CITY           SKY/WX    TMP DP  RH WIND       PRES   REMARKS
MILWAUKEE      PTCLDY    45  31  58 N22G31    30.07F
MADISON        MOCLDY    63  32  31 E13       30.01F
GREEN BAY      CLEAR     52  30  43 NE18      30.12S
EAU CLAIRE     MOCLDY    64  27  24 E14       29.98F
BLACK RVR FLS  FAIR      64  19  17 E9G17     30.00S
MEDFORD        CLOUDY    56  21  26 E12       30.06F
WAUSAU         PTCLDY    57  15  19 E9        30.07F
WIS RAPIDS     PTCLDY    60  20  21 E12       30.06F
MARSHFIELD     MOCLDY    59  25  27 E15       30.05F
RICE LAKE      CLOUDY    63  31  30 E10       30.01F
$$

...NORTHEAST IOWA...


CITY           SKY/WX    TMP DP  RH WIND       PRES   REMARKS
DECORAH        MOCLDY    68  41  37 E14       29.91F
MASON CITY     TSTM      58  32  37 E7        29.93R
CHARLES CITY   LGT RAIN  61  57  88 W6        29.90S
OELWEIN        CLOUDY    70  41  35 E20       29.89S
$$

...ELSEWHERE IN IOWA...


CITY           SKY/WX    TMP DP  RH WIND       PRES   REMARKS
DES MOINES     LGT RAIN  63  60  90 SW6       29.88R
IOWA CITY      LGT RAIN  71  55  56 E8        29.88S
FORT DODGE     CLOUDY    57  54  88 NW5       29.86S
$$

...NORTHERN ILLINOIS...


CITY           SKY/WX    TMP DP  RH WIND       PRES   REMARKS
CHICAGO-OHARE  MOCLDY    52  33  48 NE12      30.01F
CHICAGO-MIDWAY MOCLDY    53  34  48 NE13      30.01F
MOLINE         MOCLDY    73  51  46 E16       29.88F
ROCKFORD       MOCLDY    65  38  36 E16G22    29.98F
PEORIA         PTCLDY    77  45  32 S9        29.90R
$$

NOTE: "FAIR" INDICATES FEW OR NO CLOUDS BELOW 12,000 FEET WITH NO
SIGNIFICANT WEATHER AND/OR OBSTRUCTIONS TO VISIBILITY. WIND
SPEEDS ARE IN MILES-PER-HOUR.



USA.gov is the U.S. government's official web portal to all federal, state and local government web resources and services.